Location: Daytona Beach
(29.2106°N, 81.0231°W)
Time: 23:54:36
(UTC-04:00)

ISS - Pass Details

Date: 26 June 2021
Orbit: 419 x 421 km, 51.6° (Epoch: 03 August)

Event Time Altitude Azimuth Distance (km) Brightness Sun altitude
Exits shadow 05:10:40 24° 272° (W) 900 -2.5 -14.8°
Maximum altitude 05:11:59 34° 317° (NW) 704 -2.7 -14.6°
Drops below altitude 10° 05:15:06 10° 25° (NNE) 1,497 0.1 -14.1°
Sets 05:17:19 0° 35° (NE) 2,362 1.6 -13.7°
